CW1621 Weather Reports


Display with metric or nautical units.
time (UTC)temp
F
wind
direction
speed
MPH
gust
MPH
rain 1hr
in
rain 24hr
in
rain mn
in
humidity
%
barometer
mb
20260508093103 45 209 2.0 3.0 0.00 0.00 0.00 83 1016.6
20260508092603 45 209 2.0 3.0 0.00 0.00 0.00 83 1016.6
20260508092103 45 209 2.0 3.0 0.00 0.00 0.00 83 1016.7
20260508091602 45 209 2.0 3.0 0.00 0.00 0.00 82 1016.7
20260508091103 44 209 2.0 3.0 0.00 0.00 0.00 83 1016.8
20260508090602 45 209 3.0 3.0 0.00 0.00 0.00 83 1016.7
20260508090103 45 209 2.0 3.0 0.00 0.00 0.00 83 1016.6
20260508085603 45 209 2.0 3.0 0.00 0.00 0.00 83 1016.6
20260508085102 46 209 2.0 3.0 0.00 0.00 0.00 82 1016.6
20260508084603 46 209 2.0 3.0 0.00 0.00 0.00 82 1016.5
20260508084102 46 209 2.0 3.0 0.00 0.00 0.00 81 1016.6
20260508083602 46 207 2.0 3.0 0.00 0.00 0.00 80 1016.6
20260508083103 46 207 2.0 3.0 0.00 0.00 0.00 80 1016.6
20260508082103 46 207 2.0 6.0 0.00 0.00 0.00 80 1016.7
20260508081602 47 209 2.0 5.0 0.00 0.00 0.00 79 1016.3
20260508081102 48 209 1.0 2.0 0.00 0.00 0.00 78 1016.4
20260508080602 49 209 1.0 2.0 0.00 0.00 0.00 77 1016.4
20260508075603 48 209 2.0 3.0 0.00 0.00 0.00 79 1016.6
20260508075103 48 209 3.0 3.0 0.00 0.00 0.00 79 1016.6
20260508074602 47 209 3.0 3.0 0.00 0.00 0.00 80 1016.6
20260508074103 46 209 2.0 3.0 0.00 0.00 0.00 82 1016.9
20260508073602 46 209 2.0 3.0 0.00 0.00 0.00 83 1016.9
20260508073103 46 209 3.0 5.0 0.00 0.00 0.00 82 1017.0
20260508072603 47 210 4.0 6.0 0.00 0.00 0.00 79 1016.8
20260508072102 47 226 1.0 2.0 0.00 0.00 0.00 80 1016.6
20260508071602 46 226 1.0 3.0 0.00 0.00 0.00 82 1016.8
20260508070603 46 226 1.0 3.0 0.00 0.00 0.00 83 1016.9
20260508065103 46 229 3.0 3.0 0.00 0.00 0.00 84 1017.0
20260508064603 46 229 2.0 3.0 0.00 0.00 0.00 83 1016.9
20260508064103 46 232 2.0 3.0 0.00 0.00 0.00 82 1016.9
20260508063604 47 238 3.0 3.0 0.00 0.00 0.00 82 1016.6
20260508063102 47 238 1.0 2.0 0.00 0.00 0.00 82 1016.6
20260508062602 47 238 1.0 2.0 0.00 0.00 0.00 81 1016.7
20260508061602 47 238 1.0 3.0 0.00 0.00 0.00 82 1016.7
20260508061102 47 238 2.0 3.0 0.00 0.00 0.00 82 1016.9
20260508060602 47 238 1.0 2.0 0.00 0.00 0.00 82 1017.2
20260508055602 47 238 1.0 2.0 0.00 0.00 0.00 81 1017.2
20260508055103 48 238 1.0 2.0 0.00 0.00 0.00 81 1017.2
20260508054103 48 238 1.0 2.0 0.00 0.00 0.00 81 1017.2
20260508053102 49 238 1.0 3.0 0.00 0.00 0.00 80 1016.9
20260508052603 49 238 2.0 3.0 0.00 0.00 0.00 80 1016.9
20260508052102 49 315 2.0 3.0 0.00 0.00 0.00 79 1016.9
20260508051603 49 315 1.0 3.0 0.00 0.00 0.00 79 1017.1
20260508051102 49 315 2.0 3.0 0.00 0.00 0.00 78 1017.0
20260508050602 50 315 2.0 3.0 0.00 0.00 0.00 77 1017.0
20260508050103 50 315 2.0 2.0 0.00 0.00 0.00 77 1017.0
20260508045603 50 315 1.0 2.0 0.00 0.00 0.00 78 1016.9
20260508045103 50 315 1.0 3.0 0.00 0.00 0.00 77 1017.1
20260508044603 50 315 2.0 3.0 0.00 0.00 0.00 77 1017.1
20260508044103 50 315 1.0 1.0 0.00 0.00 0.00 76 1017.1
20260508043603 50 315 0.0 2.0 0.00 0.00 0.00 76 1017.2
20260508043103 51 315 1.0 2.0 0.00 0.00 0.00 76 1017.0
20260508042602 51 315 1.0 2.0 0.00 0.00 0.00 74 1017.0
20260508042103 52 315 1.0 3.0 0.00 0.00 0.00 74 1016.9
20260508041103 55 316 0.0 0.0 0.00 0.00 0.00 65 1016.4
20260508040603 55 316 0.0 0.0 0.00 0.00 0.00 61 1016.5
20260508035603 56 316 0.0 0.0 0.00 0.00 0.00 61 1016.4
20260508035102 56 316 0.0 0.0 0.00 0.00 0.00 61 1016.4
20260508034102 56 316 0.0 0.0 0.00 0.00 0.00 61 1016.4
20260508033603 56 316 0.0 0.0 0.00 0.00 0.00 61 1016.2
20260508033103 57 316 0.0 0.0 0.00 0.00 0.00 61 1016.0
20260508032602 57 316 0.0 0.0 0.00 0.00 0.00 61 1015.9
20260508031603 58 315 0.0 0.0 0.00 0.00 0.00 60 1016.0
20260508031103 58 315 0.0 0.0 0.00 0.00 0.00 60 1015.8
20260508030602 59 315 0.0 0.0 0.00 0.00 0.00 59 1015.6
20260508025602 59 315 0.0 2.0 0.00 0.00 0.00 58 1015.3
20260508025103 60 315 1.0 2.0 0.00 0.00 0.00 57 1015.3
20260508024603 61 314 0.0 2.0 0.00 0.00 0.00 57 1015.1
20260508024102 61 314 0.0 2.0 0.00 0.00 0.00 56 1015.1
20260508023602 62 315 1.0 3.0 0.00 0.00 0.00 55 1014.9
20260508023103 63 316 1.0 3.0 0.00 0.00 0.00 55 1014.9
20260508022603 63 315 0.0 2.0 0.00 0.00 0.00 54 1014.9
20260508022103 64 314 1.0 3.0 0.00 0.00 0.00 54 1014.6
20260508021603 64 313 1.0 3.0 0.00 0.00 0.00 54 1014.7
20260508021102 64 355 2.0 3.0 0.00 0.00 0.00 53 1015.3
20260508020602 64 356 1.0 3.0 0.00 0.00 0.00 53 1015.4
20260508015603 64 311 1.0 6.0 0.00 0.00 0.00 53 1015.5
20260508014602 64 322 2.0 6.0 0.00 0.00 0.00 51 1015.5
20260508014102 65 298 2.0 6.0 0.00 0.00 0.00 52 1015.4
20260508013602 65 319 2.0 3.0 0.00 0.00 0.00 52 1015.5
20260508013102 66 294 3.0 6.0 0.00 0.00 0.00 51 1015.3
20260508012602 66 341 2.0 6.0 0.00 0.00 0.00 50 1015.3
20260508012102 67 323 3.0 7.0 0.00 0.00 0.00 50 1015.3
20260508011603 67 333 3.0 6.0 0.00 0.00 0.00 49 1015.3
20260508011103 67 357 2.0 7.0 0.00 0.00 0.00 51 1016.1
20260508010603 67 335 2.0 7.0 0.00 0.00 0.00 50 1016.3
20260508005603 68 345 2.0 9.0 0.00 0.00 0.00 49 1016.3
20260508005103 68 322 3.0 7.0 0.00 0.00 0.00 49 1016.4
20260508004103 68 355 3.0 7.0 0.00 0.00 0.00 49 1016.3
20260508003103 68 317 3.0 7.0 0.00 0.00 0.00 51 1016.3
20260508002602 68 336 3.0 9.0 0.00 0.00 0.00 51 1016.3
20260508002103 68 302 5.0 10.0 0.00 0.00 0.00 50 1016.2
20260508001602 68 346 2.0 8.0 0.00 0.00 0.00 53 1016.2
20260508001103 68 319 3.0 7.0 0.00 0.00 0.00 52 1016.1
20260507235103 68 330 5.0 12.0 0.00 0.00 0.00 49 1016.2
20260507234103 68 17 3.0 10.0 0.00 0.00 0.00 49 1016.0
20260507233603 68 347 4.0 9.0 0.00 0.00 0.00 47 1016.1
20260507232603 68 15 5.0 15.0 0.00 0.00 0.00 49 1016.2
20260507231603 69 313 2.0 6.0 0.00 0.00 0.00 47 1016.0
20260507231102 69 349 4.0 7.0 0.00 0.00 0.00 44 1016.0
20260507230603 69 306 5.0 10.0 0.00 0.00 0.00 44 1015.8
20260507225603 68 329 5.0 8.0 0.00 0.00 0.00 43 1015.8
20260507224103 68 324 4.0 10.0 0.00 0.00 0.00 42 1016.0
20260507223602 68 331 3.0 12.0 0.00 0.00 0.00 43 1016.1
20260507223102 68 6 4.0 9.0 0.00 0.00 0.00 42 1016.2
20260507222603 68 332 4.0 12.0 0.00 0.00 0.00 43 1016.2
20260507221602 68 345 4.0 9.0 0.00 0.00 0.00 45 1016.1
20260507221103 67 319 5.0 12.0 0.00 0.00 0.00 46 1015.8
20260507220603 67 9 5.0 14.0 0.00 0.00 0.00 46 1015.8
20260507215602 66 19 6.0 14.0 0.00 0.00 0.00 49 1016.0
20260507215102 67 4 5.0 9.0 0.00 0.00 0.00 48 1016.0
20260507214102 66 291 7.0 14.0 0.00 0.00 0.00 46 1016.2
20260507213602 68 14 5.0 12.0 0.00 0.00 0.00 47 1016.0
20260507212602 68 333 3.0 12.0 0.00 0.00 0.00 47 1016.1
20260507211603 68 353 3.0 10.0 0.00 0.00 0.00 46 1016.2
20260507211103 67 319 3.0 12.0 0.00 0.00 0.00 48 1016.1
20260507210603 67 341 5.0 10.0 0.00 0.00 0.00 49 1015.9
20260507205603 67 350 3.0 12.0 0.00 0.00 0.00 54 1015.9
20260507204603 67 10 3.0 9.0 0.00 0.00 0.00 55 1015.9
20260507204103 66 13 2.0 12.0 0.00 0.00 0.00 57 1015.9
20260507202603 66 323 4.0 10.0 0.00 0.00 0.00 57 1016.0
20260507202103 66 357 4.0 8.0 0.00 0.00 0.00 58 1016.0
20260507201602 66 10 2.0 5.0 0.00 0.00 0.00 58 1016.0
20260507201103 65 344 2.0 6.0 0.00 0.00 0.00 62 1016.2
20260507200603 65 327 3.0 9.0 0.00 0.00 0.00 59 1016.1
20260507195603 64 291 3.0 7.0 0.00 0.00 0.00 61 1016.1
20260507195103 65 285 5.0 6.0 0.00 0.00 0.00 55 1016.1
20260507194603 66 294 3.0 5.0 0.00 0.00 0.00 56 1015.8
20260507194103 66 349 4.0 8.0 0.00 0.00 0.00 59 1015.9
20260507193603 66 58 3.0 7.0 0.00 0.00 0.00 57 1015.8
20260507193103 66 307 2.0 6.0 0.00 0.00 0.00 59 1015.9
20260507192602 65 23 4.0 10.0 0.00 0.00 0.00 56 1015.8
20260507192103 66 5 3.0 8.0 0.00 0.00 0.00 60 1015.9
20260507191103 64 326 2.0 12.0 0.00 0.00 0.00 60 1016.0
20260507190603 65 358 3.0 9.0 0.00 0.00 0.00 59 1015.9
20260507185603 64 159 1.0 5.0 0.00 0.00 0.00 65 1016.1
20260507185103 63 33 2.0 8.0 0.00 0.00 0.00 61 1016.1
20260507184603 62 46 6.0 9.0 0.00 0.00 0.00 61 1016.5
20260507184102 62 278 1.0 5.0 0.00 0.00 0.00 64 1016.4
20260507183602 61 66 6.0 12.0 0.00 0.00 0.00 62 1016.5
20260507183103 61 89 7.0 9.0 0.00 0.00 0.00 62 1016.4
20260507182603 61 73 6.0 10.0 0.00 0.00 0.00 62 1016.5
20260507182103 61 43 7.0 13.0 0.00 0.00 0.00 64 1016.4
20260507181603 61 59 6.0 10.0 0.00 0.00 0.00 63 1016.4
20260507181103 61 42 7.0 15.0 0.00 0.00 0.00 62 1016.4
20260507180603 62 54 5.0 12.0 0.00 0.00 0.00 62 1016.2
20260507175603 61 53 7.0 12.0 0.00 0.00 0.00 61 1016.2
20260507175103 60 22 4.0 12.0 0.00 0.00 0.00 64 1016.2
20260507174104 61 88 5.0 12.0 0.00 0.00 0.00 59 1016.3
20260507173603 61 44 5.0 10.0 0.00 0.00 0.00 60 1016.3
20260507173103 62 36 6.0 12.0 0.00 0.00 0.00 58 1016.2
20260507172602 63 39 2.0 8.0 0.00 0.00 0.00 58 1015.8
20260507172103 62 54 2.0 7.0 0.00 0.00 0.00 60 1016.0
20260507171603 62 30 3.0 6.0 0.00 0.00 0.00 59 1016.2
20260507171103 61 63 3.0 5.0 0.00 0.00 0.00 58 1016.2
20260507170603 60 64 4.0 6.0 0.00 0.00 0.00 58 1016.2
20260507170104 60 118 2.0 6.0 0.00 0.00 0.00 58 1016.3
20260507165103 60 102 3.0 6.0 0.00 0.00 0.00 58 1016.2
20260507164602 60 55 3.0 6.0 0.00 0.00 0.00 59 1016.3
20260507164103 59 83 3.0 7.0 0.00 0.00 0.00 60 1016.5
20260507163605 59 94 2.0 5.0 0.00 0.00 0.00 62 1016.6
20260507163103 59 100 3.0 6.0 0.00 0.00 0.00 61 1016.6
20260507162602 59 200 3.0 5.0 0.00 0.00 0.00 58 1016.5
20260507162103 59 345 1.0 3.0 0.00 0.00 0.00 56 1016.6
20260507161603 60 345 1.0 3.0 0.00 0.00 0.00 57 1016.6
20260507161103 59 345 2.0 5.0 0.00 0.00 0.00 61 1016.8
20260507160603 60 263 4.0 6.0 0.00 0.00 0.00 56 1016.6
20260507155102 61 52 2.0 5.0 0.00 0.00 0.00 55 1016.5
20260507154603 61 25 2.0 5.0 0.00 0.00 0.00 55 1016.5
20260507153603 62 31 3.0 7.0 0.00 0.00 0.00 55 1016.2
20260507152603 62 30 1.0 3.0 0.00 0.00 0.00 56 1016.2
20260507152102 61 20 2.0 5.0 0.00 0.00 0.00 57 1016.5
20260507151603 61 354 2.0 6.0 0.00 0.00 0.00 56 1016.5
20260507151103 60 0 2.0 3.0 0.00 0.00 0.00 58 1016.5
20260507150603 59 5 0.0 3.0 0.00 0.00 0.00 59 1016.7
20260507145603 59 264 1.0 3.0 0.00 0.00 0.00 63 1016.8
20260507145103 57 264 1.0 2.0 0.00 0.00 0.00 64 1016.9
20260507144602 56 263 0.0 3.0 0.00 0.00 0.00 64 1016.9
20260507144103 56 263 2.0 3.0 0.00 0.00 0.00 63 1017.0
20260507143102 55 237 2.0 3.0 0.00 0.00 0.00 65 1016.9
20260507142603 55 271 2.0 3.0 0.00 0.00 0.00 70 1017.0
20260507142103 55 273 1.0 3.0 0.00 0.00 0.00 69 1017.0
20260507141603 54 273 3.0 5.0 0.00 0.00 0.00 72 1016.9
20260507141103 54 234 2.0 3.0 0.00 0.00 0.00 71 1016.9
20260507140603 53 157 2.0 3.0 0.00 0.00 0.00 74 1016.8
20260507135603 51 157 1.0 2.0 0.00 0.00 0.00 77 1017.1
20260507135104 49 157 1.0 2.0 0.00 0.00 0.00 77 1017.2
20260507134603 49 157 0.0 2.0 0.00 0.00 0.00 80 1017.1
20260507134102 48 157 2.0 3.0 0.00 0.00 0.00 79 1017.3
20260507133603 48 157 2.0 3.0 0.00 0.00 0.00 80 1017.3
20260507133103 47 157 1.0 3.0 0.00 0.00 0.00 81 1017.2
20260507132603 47 157 3.0 5.0 0.00 0.00 0.00 81 1017.1
20260507132103 46 157 4.0 6.0 0.00 0.00 0.00 81 1017.3
20260507131603 45 157 3.0 3.0 0.00 0.00 0.00 82 1017.3
20260507130603 45 159 3.0 6.0 0.00 0.00 0.00 81 1016.8
20260507130103 45 150 3.0 5.0 0.00 0.00 0.00 79 1016.7
20260507125603 46 5 2.0 3.0 0.00 0.00 0.00 80 1016.7
20260507124603 46 170 0.0 1.0 0.00 0.00 0.00 78 1016.5
20260507124103 47 175 1.0 2.0 0.00 0.00 0.00 75 1016.3
20260507123603 48 175 1.0 2.0 0.00 0.00 0.00 76 1016.1
20260507123103 48 173 1.0 3.0 0.00 0.00 0.00 77 1016.0
20260507122602 47 172 1.0 2.0 0.00 0.00 0.00 78 1016.0
20260507122104 47 169 0.0 3.0 0.00 0.00 0.00 79 1016.0
20260507121602 45 169 0.0 2.0 0.00 0.00 0.00 81 1016.3
20260507121103 45 169 0.0 2.0 0.00 0.00 0.00 80 1016.2
20260507120603 45 169 2.0 2.0 0.00 0.00 0.00 79 1016.0
20260507115602 45 169 2.0 3.0 0.00 0.00 0.00 80 1016.0
20260507115103 44 169 2.0 3.0 0.00 0.00 0.00 81 1015.9
20260507114604 45 169 3.0 3.0 0.00 0.00 0.00 81 1015.9
20260507114104 46 169 2.0 3.0 0.00 0.00 0.00 78 1015.7
20260507113604 47 169 1.0 3.0 0.00 0.00 0.00 76 1015.7
20260507112603 49 169 2.0 3.0 0.00 0.00 0.00 73 1015.4
20260507111602 48 169 2.0 3.0 0.00 0.00 0.00 73 1015.6
20260507111103 48 169 1.0 2.0 0.00 0.00 0.00 74 1015.4
20260507110602 48 169 2.0 3.0 0.00 0.00 0.00 74 1015.3
20260507110103 48 169 2.0 3.0 0.00 0.00 0.00 73 1015.2
20260507105603 50 169 3.0 5.0 0.00 0.00 0.00 70 1015.0
20260507105103 50 169 3.0 5.0 0.00 0.00 0.00 70 1014.9
20260507104103 51 169 5.0 6.0 0.00 0.00 0.00 69 1014.8
20260507103604 51 146 4.0 5.0 0.00 0.00 0.00 70 1014.9
20260507103103 50 144 5.0 6.0 0.00 0.00 0.00 71 1014.9
20260507102603 50 140 5.0 6.0 0.00 0.00 0.00 71 1014.9
20260507102103 52 143 3.0 5.0 0.00 0.00 0.00 69 1014.7
20260507101603 52 288 0.0 3.0 0.00 0.00 0.00 68 1014.6
20260507101104 53 288 2.0 5.0 0.00 0.00 0.00 67 1014.5
20260507100603 53 284 2.0 5.0 0.00 0.00 0.00 66 1014.3
20260507100103 54 314 2.0 3.0 0.00 0.00 0.00 65 1014.0
20260507095603 54 319 3.0 5.0 0.00 0.00 0.00 64 1014.0
20260507095103 54 310 3.0 6.0 0.00 0.00 0.00 64 1014.1
20260507094603 55 316 3.0 6.0 0.00 0.00 0.00 63 1014.1
20260507094102 55 311 3.0 6.0 0.00 0.00 0.00 62 1014.1
20260507093603 55 329 3.0 9.0 0.00 0.00 0.00 62 1014.1